Niagara Falls, NY

10:01 PM EDT on August 23, 2017 (GMT -0400)
Niagara Falls International

Weather History for KIAG - October, 2012

Change the Weather History Date:

Sunday, October 7, 2012

  Actual Average Record
Temperature  
Mean Temperature 42 °F -  
Max Temperature 48 °F 61 °F 78 °F (2016)
Min Temperature 36 °F 42 °F 28 °F (1999)
Degree Days  
Heating Degree Days 22    
Moisture  
Dew Point 37 °F    
Average Humidity 75    
Maximum Humidity 89    
Minimum Humidity 62    
Precipitation  
Precipitation 0.05 in - - ()
Sea Level Pressure  
Sea Level Pressure 30.07 in    
Wind  
Wind Speed 5 mph (West)    
Max Wind Speed 13 mph    
Max Gust Speed -    
Visibility 10 miles    
Events Rain    
Averages and records for this station are not official NWS values.
T = Trace of Precipitation, MM = Missing Value Source: NWS Daily Summary

Daily Weather History Graph

Daily Weather History Graph

Search for Another Location

Airport or City:

Trip Planner

Search our weather history database for the weather conditions in past years. The results will help you decide how hot, cold, wet, or windy it might be!

Date:

Astronomy

Oct. 07, 2012 Rise Set
Actual Time 7:20 AM EDT 6:45 PM EDT
Civil Twilight 6:52 AM EDT 7:14 PM EDT
Nautical Twilight 6:19 AM EDT 7:46 PM EDT
Astronomical Twilight 5:46 AM EDT 8:19 PM EDT
Moon 11:49 PM EDT (10/7) 2:03 PM EDT (10/7)
Length of Visible Light 12h 21m
Length of Day
11h 25m
Waning Gibbous, 56% of the Moon is Illuminated
Oct 7
Waning Gibbous
Oct 8
Last Quarter
Oct 15
New
Oct 21
First Quarter
Oct 29
Full

Hourly Weather History & Observations

Time (EDT) Temp. Windchill Dew Point Humidity Pressure Visibility Wind Dir Wind Speed Gust Speed Precip Events Conditions
12:53 AM 46.0 °F 41.0 °F 36.0 °F 68% 30.05 in 10.0 mi West 10.4 mph - N/A   Overcast
1:53 AM 46.0 °F 41.9 °F 36.0 °F 68% 30.06 in 10.0 mi NW 8.1 mph - N/A   Overcast
2:53 AM 44.6 °F 40.7 °F 35.6 °F 71% 30.04 in 10.0 mi West 6.9 mph - N/A   Overcast
3:53 AM 44.1 °F 41.5 °F 36.0 °F 73% 30.06 in 10.0 mi West 4.6 mph - N/A   Overcast
4:53 AM 43.0 °F - 37.0 °F 80% 30.06 in 10.0 mi Calm Calm - N/A   Overcast
5:53 AM 44.1 °F 42.5 °F 37.0 °F 76% 30.06 in 10.0 mi SSE 3.5 mph - N/A   Overcast
6:53 AM 44.1 °F - 37.9 °F 79% 30.06 in 10.0 mi Calm Calm - N/A   Overcast
6:59 AM 44.6 °F - 37.4 °F 76% 30.03 in 10.0 mi Calm Calm - N/A   Mostly Cloudy
7:53 AM 44.1 °F - 37.9 °F 79% 30.06 in 10.0 mi Calm Calm - N/A   Mostly Cloudy
8:53 AM 46.0 °F 44.8 °F 39.0 °F 76% 30.08 in 10.0 mi WSW 3.5 mph - N/A   Mostly Cloudy
9:53 AM 46.9 °F - 37.9 °F 71% 30.09 in 10.0 mi WNW 3.5 mph - N/A   Mostly Cloudy
10:53 AM 48.9 °F - 37.0 °F 64% 30.09 in 10.0 mi Calm Calm - N/A   Overcast
11:53 AM 48.0 °F - 37.0 °F 66% 30.09 in 10.0 mi Calm Calm - N/A   Overcast
12:53 PM 48.9 °F - 37.0 °F 64% 30.06 in 10.0 mi Calm Calm - N/A   Overcast
1:51 PM 48.2 °F - 35.6 °F 62% 30.04 in 10.0 mi Calm Calm - 0.00 in Rain Light Rain
1:53 PM 48.9 °F - 37.0 °F 64% 30.06 in 10.0 mi Calm Calm - 0.00 in Rain Light Rain
2:48 PM 46.4 °F 42.9 °F 41.0 °F 81% 30.02 in 10.0 mi NNE 6.9 mph - 0.02 in Rain Light Rain
2:53 PM 46.9 °F - 41.0 °F 80% 30.05 in 10.0 mi NNE 5.8 mph - 0.02 in Rain Light Rain
3:53 PM 46.0 °F 43.9 °F 39.0 °F 76% 30.06 in 10.0 mi SSW 4.6 mph - 0.01 in Rain Light Rain
4:09 PM 46.4 °F 44.3 °F 39.2 °F 76% 30.03 in 10.0 mi South 4.6 mph - 0.00 in Rain Light Rain
4:53 PM 46.0 °F 41.4 °F 39.0 °F 76% 30.06 in 10.0 mi SSW 9.2 mph - 0.00 in Rain Light Rain
5:16 PM 44.6 °F 38.4 °F 37.4 °F 76% 30.04 in 5.0 mi West 12.7 mph - 0.00 in Rain Light Rain
5:53 PM 43.0 °F 38.8 °F 37.9 °F 82% 30.08 in 7.0 mi WSW 6.9 mph - 0.02 in Rain Light Rain
6:07 PM 44.6 °F 40.2 °F 35.6 °F 71% 30.06 in 10.0 mi West 8.1 mph - 0.00 in Rain Light Rain
6:24 PM 42.8 °F 41.1 °F 35.6 °F 76% 30.06 in 10.0 mi WSW 3.5 mph - 0.00 in   Overcast
6:53 PM 44.1 °F - 37.0 °F 76% 30.09 in 10.0 mi Calm Calm - 0.00 in   Mostly Cloudy
7:53 PM 42.1 °F 38.4 °F 36.0 °F 79% 30.10 in 10.0 mi WSW 5.8 mph - N/A   Mostly Cloudy
8:53 PM 39.0 °F 34.8 °F 35.1 °F 86% 30.11 in 10.0 mi West 5.8 mph - N/A   Mostly Cloudy
9:53 PM 43.0 °F 39.5 °F 37.9 °F 82% 30.12 in 10.0 mi WNW 5.8 mph - N/A   Mostly Cloudy
10:53 PM 37.9 °F 34.4 °F 35.1 °F 89% 30.14 in 10.0 mi West 4.6 mph - N/A   Scattered Clouds
11:53 PM 36.0 °F 31.1 °F 33.1 °F 89% 30.15 in 10.0 mi WSW 5.8 mph - N/A   Clear